Вернуться в каталог

FENGYUN 1C DEB

АктивенPO
NORAD 37595·DEBRIS·🇨🇳 China

Запущен May 10, 1999 с Taiyuan Satellite Launch Center

Loading…

Ближайшие Пролёты (ближайшие 24 часа)

TLE

СвежийSource: Space-Track

Эпоха: Sep 12, 2026, 11:47 UTC

1 37595U 99025EKP 26255.49112561  .00022560  00000-0  25302-2 0  9992
2 37595  99.0392 143.8964 0015686 226.3849 261.3779 14.86731780666534

Отслеживайте FENGYUN 1C DEB в реальном времени с AllMySat

Download on the App Store